sat.trackr.live / text

‹ back to catalog

STARLINK-2588

NORAD 48398 · 2021-038AX

PAYLOAD ACTIVE UNKNOWN

§ Identity

Operator
Country
US
Launch date
2021-05-04
Launch site
AFETR
Launch vehicle
Mass (kg)
RCS (m²)

Purposes: comms

External: N2YO · Heavens-Above · Gunter

§ Orbital elements

Epoch: 2026-09-13T02:38:19.053600Z

Period
94.41 min
Inclination
53.0500°
Eccentricity
0.0005106
Mean motion
15.25245538 rev/d
Perigee alt
486.5 km
Apogee alt
493.6 km
Semi-major
6,868.2 km
B*
1.0692e-3
RAAN
199.6049°
Arg perigee
16.2285°
Mean anomaly
343.8875°
Rev number
29,707

§ Raw data

STARLINK-25881 48398U 21038AX  26256.10994275  .00026997  00000+0  10692-2 0  99962 48398  53.0500 199.6049 0005106  16.2285 343.8875 15.25245538297074

JSON: /api/v1/satellites/48398 · /tle

For live sub-satellite position, see the globe view (requires WebGL).

§ Visibility from observer

Set your observer location to see the next 7 days of passes ≥ 10°. The values pass through the URL so the page stays shareable.

No JS? Fill the form by hand. The geolocation button needs JavaScript.